This is the latest recevied weather packets stored in our database for station/object K7LDN-13. If no packets are shown the sender has not sent any weather packets the latest 10 day(s).
| Time | Temp. | Humidity | Pressure | Rain* | Wind** | Luminosity | Snow |
|---|---|---|---|---|---|---|---|
| 1777532615 | 7.22° C | 53% | 1022 hPa | 0 mm | - | 0 W/m² | - |
| 1777532311 | 7.22° C | 54% | 1022.1 hPa | 0 mm | - | 0 W/m² | - |
| 1777532007 | 7.22° C | 55% | 1022.4 hPa | 0 mm | - | 0 W/m² | - |
| 1777531704 | 7.22° C | 55% | 1022.2 hPa | 0 mm | - | 0 W/m² | - |
| 1777531400 | 7.22° C | 54% | 1022 hPa | 0 mm | - | 0 W/m² | - |
| 1777531098 | 7.22° C | 54% | 1022 hPa | 0 mm | - | 0 W/m² | - |
| 1777530796 | 7.22° C | 54% | 1022 hPa | 0 mm | - | 0 W/m² | - |
| 1777530494 | 7.22° C | 54% | 1022.1 hPa | 0 mm | - | 0 W/m² | - |
| 1777530189 | 7.22° C | 54% | 1021.9 hPa | 0 mm | - | 0 W/m² | - |
| 1777529887 | 7.78° C | 54% | 1021.9 hPa | 0 mm | - | 0 W/m² | - |
| 1777529582 | 7.22° C | 56% | 1022 hPa | 0 mm | - | 0 W/m² | - |
| 1777529280 | 7.78° C | 53% | 1022 hPa | 0 mm | - | 0 W/m² | - |
| 1777528976 | 7.78° C | 54% | 1021.9 hPa | 0 mm | - | 0 W/m² | - |
| 1777528671 | 7.78° C | 54% | 1022.2 hPa | 0 mm | - | 0 W/m² | - |
| 1777528369 | 7.78° C | 53% | 1022 hPa | 0 mm | - | 0 W/m² | - |
| 1777528068 | 7.78° C | 54% | 1021.9 hPa | 0 mm | - | 0 W/m² | - |
| 1777527764 | 8.33° C | 53% | 1021.9 hPa | 0 mm | - | 0 W/m² | - |
| 1777527459 | 8.89° C | 51% | 1021.8 hPa | 0 mm | - | 0 W/m² | - |
| 1777527154 | 8.89° C | 51% | 1022 hPa | 0 mm | - | 0 W/m² | - |
| 1777526851 | 8.89° C | 51% | 1022.2 hPa | 0 mm | - | 0 W/m² | - |
| 1777526546 | 8.89° C | 52% | 1022.1 hPa | 0 mm | - | 0 W/m² | - |
| 1777526241 | 8.89° C | 52% | 1022 hPa | 0 mm | - | 0 W/m² | - |
| 1777525937 | 8.89° C | 52% | 1022.2 hPa | 0 mm | - | 0 W/m² | - |
| 1777525635 | 8.89° C | 52% | 1022.4 hPa | 0 mm | - | 0 W/m² | - |
| 1777525332 | 8.89° C | 51% | 1022.2 hPa | 0 mm | - | 0 W/m² | - |
* Rain latest hour (hover to see other rain measurements)
** Current wind speed in m/s (hover to see current wind gust speed)